Weather in Bosteri

Kyrgyzstan     42°39′38″N   77°11′18″E
temp.,
°C
wind,
m/s
gust,
m/s
humid.,
%
clouds,
%
prec.,
mm/h
press.,
hPa
HPBL,
m
12 august, fri
fri1200:00+12nnw3478100 4.7 1015172
03:00+11w228697 3.9 1016231
06:00+11sse118234 5.6 1015182
09:00+12se127821 0.3 1016480
12:00+13sse327639 0.8 1015673
15:00+14sse226715 0.8 1014692
18:00+14se11592 2.3 1014449
21:00+11nw117010 0.4 101630
13 august, sat
sat1300:00+11nw227019 0.8 101683
03:00+10nnw12691 0.0 101671
06:00+10nnw11682 0.0 101687
09:00+13s21640 0.1 1016436
12:00+14s22631 0.4 1015731
15:00+15s115715 1.4 1014634
18:00+15ese11589 2.1 1014421
21:00+12n22677 0.4 101616
14 august, sun
sun1400:00+12nnw22700 0.4 101619
03:00+11nnw32680 0.0 101525
06:00+11nnw22570 0.0 101554
09:00+15s21570 0.0 1014315
12:00+17s32530 0.0 1013648
15:00+18s23521 0.0 1011778
18:00+17wsw12631 0.2 1012187
21:00+15n226145 0.3 101317
15 august, mon
mon1500:00+14nnw325435 0.3 101316
03:00+14nnw22492 0.0 101114
06:00+13nnw11543 0.0 101115
09:00+16s11513 0.0 1011242
12:00+18s22530 0.1 1009647
15:00+19s22500 0.6 1008860
18:00+19e115251 0.8 1008479
21:00+16ne346770 1.1 101166
16 august, tue
tue1600:00+14nnw43664 1.4 101225
03:00+13wnw22673 0.0 101113
06:00+12nnw11683 0.0 101177
09:00+15se22641 0.1 1010449
12:00+16ssw236174 1.4 1010815
15:00+16sw236074 1.2 1009733
18:00+14sw236735 2.0 1010382
21:00+11nnw227134 1.5 101360